Location: Cranford
(40.6578°N, 74.3024°W)
Time: 10:33:00
(UTC+00:00)

STARLINK-5186 - Pass Details

Date: 08 December 2022
Orbit: 539 x 540 km, 53.2° (Epoch: 02 February)

Event Time Altitude Azimuth Distance (km) Brightness Sun altitude
Rises 23:36:51 0° 275° (W) 2,685 ? -23.4°
Reaches altitude 10° 23:39:32 10° 292° (WNW) 1,796 ? -23.9°
Maximum altitude 23:42:36 20° 341° (NNW) 1,279 ? -24.4°
Enters shadow 23:42:39 20° 342° (NNW) 1,280 ? -24.4°
